San Jose, Costa Rica

8:09 PM CST on April 26, 2018 (GMT -0600)
Juan Santamaria International

Weather History for MROC - August, 2013

Change the Weather History Date:

Sunday, August 25, 2013

  Actual Average Record
Temperature  
Mean Temperature 72 °F -  
Max Temperature 79 °F 79 °F 87 °F (2016)
Min Temperature 64 °F 63 °F 61 °F (2015)
Cooling Degree Days 6    
Growing Degree Days 22 (Base 50)    
Moisture  
Dew Point 65 °F    
Average Humidity 80    
Maximum Humidity 100    
Minimum Humidity 56    
Precipitation  
Precipitation 0.00 in 0.45 in - ()
Sea Level Pressure  
Sea Level Pressure 30.01 in    
Wind  
Wind Speed 6 mph ()    
Max Wind Speed 15 mph    
Max Gust Speed 20 mph    
Visibility 7.7 miles    
Events Fog , Rain    
Averages and records for this station are not official NWS values.
T = Trace of Precipitation, MM = Missing Value Source: Averaged Metar Reports

Daily Weather History Graph

Daily Weather History Graph

Search for Another Location

Airport or City:

Astronomy

Aug. 25, 2013 Rise Set
Actual Time 5:27 AM CST 5:49 PM CST
Civil Twilight 5:06 AM CST 6:11 PM CST
Nautical Twilight 4:41 AM CST 6:35 PM CST
Astronomical Twilight 4:16 AM CST 7:01 PM CST
Moon 9:29 PM CST (8/25) 9:23 AM CST (8/25)
Length of Visible Light 13h 04m
Length of Day
12h 21m
Waning Gibbous, 75% of the Moon is Illuminated
Aug 25
Waning Gibbous
Aug 28
Last Quarter
Sep 5
New
Sep 12
First Quarter
Sep 19
Full

Hourly Weather History & Observations

Time (CST) Temp. Dew Point Humidity Pressure Visibility Wind Dir Wind Speed Gust Speed Precip Events Conditions
12:00 AM 66.2 °F 64.4 °F 94% 30.03 in - ENE 5.8 mph - N/A   Clear
1:00 AM - - N/A% 30.03 in - NNE 4.6 mph - N/A   Clear
2:00 AM 66.2 °F 62.6 °F 88% 30.01 in - ENE 2.3 mph - N/A   Clear
3:00 AM 64 °F 63 °F 94% 29.90 in 12 mi SE 3.5 mph - -   Scattered Clouds
3:00 AM 64.4 °F 62.6 °F 94% 30.00 in - SE 3.5 mph - N/A   Clear
4:00 AM 64.4 °F 62.6 °F 94% 30.02 in - NNE 3.5 mph - N/A   Clear
5:00 AM 64.4 °F 62.6 °F 94% 30.03 in - East 5.8 mph - N/A   Clear
6:00 AM 64.4 °F 60.8 °F 88% 30.04 in 6.2 mi ENE 4.6 mph - N/A   Mostly Cloudy
7:00 AM 69.8 °F 62.6 °F 78% 30.05 in 6.2 mi ENE 11.5 mph - N/A   Mostly Cloudy
8:00 AM 73.4 °F 64.4 °F 73% 30.06 in 6.2 mi ENE 10.4 mph - N/A   Mostly Cloudy
9:00 AM 77 °F 64 °F 56% 29.90 in 12 mi ESE 15.0 mph - -   Scattered Clouds
9:00 AM 77.0 °F 64.4 °F 65% 30.06 in 6.2 mi ESE 15.0 mph - N/A   Mostly Cloudy
10:00 AM 77.0 °F 62.6 °F 61% 30.05 in 6.2 mi SE 8.1 mph 19.6 mph N/A   Mostly Cloudy
11:00 AM 77.0 °F 62.6 °F 61% 30.06 in 6.2 mi ESE 15.0 mph - N/A   Mostly Cloudy
12:00 PM 75 °F 66 °F 68%  in 12 mi WNW 9.2 mph - -   Overcast
12:00 PM 75.2 °F 66.2 °F 73% 30.05 in 6.2 mi WNW 9.2 mph - N/A   Mostly Cloudy
1:00 PM 75.2 °F 68.0 °F 78% 30.03 in 6.2 mi West 12.7 mph - N/A   Mostly Cloudy
2:00 PM 73.4 °F 66.2 °F 78% 30.01 in 6.2 mi WSW 9.2 mph - N/A Rain Light Rain
3:00 PM 75 °F 66 °F 68% 29.85 in 12 mi West 4.6 mph - -   Overcast
3:00 PM 75.2 °F 66.2 °F 73% 30.00 in 6.2 mi West 4.6 mph - N/A   Mostly Cloudy
4:00 PM 77.0 °F 68.0 °F 74% 29.98 in - West 3.5 mph - N/A   Clear
5:00 PM 77.0 °F 62.6 °F 61% 30.00 in - SSE 2.3 mph - N/A   Clear
6:00 PM 71 °F 68 °F 87% 29.87 in 12 mi WSW 5.8 mph - -   Mist
6:00 PM 69.8 °F 69.8 °F 100% 30.02 in 6.2 mi WSW 5.8 mph - N/A   Mostly Cloudy
7:00 PM 69.8 °F 68.0 °F 94% 30.04 in 6.2 mi West 2.3 mph - N/A   Scattered Clouds
8:00 PM 69.8 °F 68.0 °F 94% 30.06 in 6.2 mi SW 2.3 mph - N/A Fog Partly Cloudy
9:00 PM 69.8 °F 68.0 °F 94% 30.07 in 6.2 mi WNW 3.5 mph - N/A   Scattered Clouds
10:00 PM 69.8 °F 66.2 °F 88% 30.07 in - NNE 3.5 mph - N/A   Clear
11:00 PM 69.8 °F 62.6 °F 78% 30.06 in - ENE 8.1 mph - N/A   Clear